RH
83 85 83 89 96 97 98 97 91 93 94 92 82 85 92 87 82 74 61 55 55 68 82 69 70 56 51 45 42 46 57 49 31 31 24 22 25 23 21 23 22 21 22 29 47
78 79 79 80 81 88 94 98 96 92 88 87 89 84 78 88 80 57 47 56 65 72 80 65 63 51 53 47 49 55 53 40 26 26 28 26 24 27 26 25 24 24 25 38 49
90 90 87 88 84 85 84 94 98 97 94 96 95 85 73 88 61 35 49 62 75 87 69 53 50 50 53 45 47 49 53 33 36 33 31 28 27 24 27 28 23 25 31 43 42
90 91 94 95 93 85 86 82 93 96 98 95 97 86 66 77 47 46 78 73 80 86 71 48 46 56 55 56 43 53 41 38 37 36 36 32 27 29 26 24 21 20 28 40 39
81 82 84 84 89 94 94 88 85 88 93 98 94 84 72 59 53 41 69 83 80 81 59 51 51 51 53 44 43 49 42 38 37 38 36 32 34 30 28 22 22 20 29 37 35
81 81 86 84 84 84 85 95 91 86 86 96 98 90 73 66 40 45 69 74 69 75 56 44 44 39 40 40 44 41 46 41 40 40 36 39 34 34 28 24 24 23 29 32 32
77 83 85 88 88 87 86 86 89 96 92 90 94 98 79 59 46 49 72 78 78 68 57 45 39 45 40 42 35 38 50 44 41 41 41 38 42 41 27 26 26 26 28 30 30
88 89 90 91 91 92 93 90 90 93 88 90 89 84 90 54 50 46 51 76 76 70 56 47 45 43 41 35 39 47 44 51 38 40 39 44 50 33 28 29 29 26 25 29 29
84 86 90 89 90 92 88 88 88 88 87 86 75 64 73 49 52 46 46 59 70 67 53 42 44 49 50 52 47 46 48 47 36 38 41 47 45 31 26 28 30 26 24 27 28
88 82 86 86 85 87 91 83 70 78 71 67 61 63 51 54 45 50 50 52 61 55 48 45 56 58 54 49 57 41 43 31 36 39 43 50 48 34 28 30 32 28 25 25 28
80 82 80 83 86 88 88 62 42 47 62 48 43 50 34 40 51 50 46 54 49 55 60 51 72 82 55 46 36 35 32 36 32 34 44 47 45 40 31 26 30 28 26 24 27
83 84 86 84 84 89 85 64 48 58 81 50 56 47 36 38 50 44 49 54 56 66 53 58 71 49 46 42 46 44 44 39 32 32 42 39 39 34 31 31 27 26 27 26 24
84 86 88 90 91 80 58 53 53 65 97 76 47 46 42 46 50 48 46 46 51 60 60 64 42 39 44 48 50 47 49 38 35 26 27 28 30 27 24 26 28 25 20 23 25
83 85 87 92 84 67 58 70 75 80 99 57 49 45 36 37 55 41 41 44 49 56 50 57 36 41 46 48 44 52 38 34 35 38 37 25 29 16 17 21 24 28 26 18 23
83 87 87 94 79 69 60 59 80 84 92 61 34 30 28 42 33 37 44 55 60 50 53 68 44 46 48 46 41 47 34 41 42 47 40 36 37 22 16 20 20 20 24 25 19
86 89 93 75 77 69 66 73 78 96 81 69 46 48 43 42 42 22 49 47 50 47 42 41 33 39 40 37 40 39 46 44 47 46 65 43 34 23 20 18 16 17 19 22 19
89 92 89 77 65 72 78 73 96 85 45 58 46 43 43 42 51 35 60 74 90 99 89 53 42 32 33 42 40 45 52 72 75 75 69 30 39 25 16 15 13 14 17 18 18
89 70 74 70 69 78 82 100 89 49 47 56 39 46 56 46 48 43 54 75 62 59 66 83 78 42 33 37 44 52 46 54 57 62 44 31 41 28 18 15 15 14 14 17 19
75 61 68 70 76 84 91 94 62 52 63 62 51 52 66 59 53 48 53 61 61 48 58 68 46 33 33 30 32 48 54 36 41 31 36 32 25 19 19 19 19 18 18 16 21
67 63 60 77 84 79 96 74 60 49 72 79 66 62 51 53 62 62 51 39 49 44 35 40 58 36 35 30 29 34 33 54 58 78 45 26 26 20 23 22 20 20 22 18 22
71 68 77 88 88 81 88 70 61 48 50 82 71 76 92 86 75 66 52 34 31 42 40 48 45 44 38 42 40 40 38 35 44 43 44 30 24 20 22 20 20 19 21 20 23
60 81 76 81 88 96 79 67 56 46 43 53 57 54 49 63 83 68 68 46 32 33 54 52 76 54 46 32 33 31 41 40 56 71 54 48 30 20 21 21 20 17 21 22 24
81 76 66 72 84 88 64 57 53 56 49 47 54 62 58 55 84 92 75 71 56 41 47 57 93 72 49 43 39 44 35 58 58 47 51 41 27 20 20 22 21 21 23 24 26
84 88 85 90 98 92 76 62 69 46 52 48 51 54 85 71 56 68 64 71 54 51 58 58 81 71 54 67 76 66 60 39 47 58 40 36 26 22 23 24 23 23 24 26 27
85 81 66 85 76 81 82 80 74 64 53 56 60 60 59 88 97 79 63 78 67 68 61 84 89 67 52 42 54 55 62 64 64 51 49 30 26 20 20 21 22 23 24 28 28
86 82 76 81 70 88 87 94 84 72 61 59 78 57 69 84 78 80 85 88 87 86 100 100 78 58 57 49 49 47 43 50 55 41 38 29 27 17 18 17 22 24 26 27 29
85 82 91 72 81 86 95 98 90 99 73 49 49 90 81 64 54 55 56 56 61 88 96 100 95 79 69 43 53 64 41 37 44 41 36 43 29 19 23 21 25 24 26 26 27
Wind_Speed
18 19 19 21 19 20 20 18 16 15 15 14 16 16 16 14 16 15 17 12 13 12 15 16 15 14 15 11 14 7 7 13 18 14 11 8 12 7 4 7 7 6 5 13 27
17 17 18 18 20 21 21 21 19 17 15 15 14 15 16 14 18 24 26 16 16 16 21 21 18 17 12 15 9 13 11 15 10 7 8 9 13 11 7 10 9 8 5 25 27
19 19 19 19 17 19 19 21 20 19 17 15 13 15 14 12 14 4 5 20 15 17 23 21 20 17 16 12 16 12 18 16 1 6 4 7 10 10 13 14 13 15 15 21 25
22 22 21 20 20 19 19 19 21 19 19 17 13 14 11 8 6 5 8 15 18 19 19 22 17 18 16 14 17 12 18 14 4 4 6 9 7 9 12 4 3 11 19 20 22
22 22 23 24 22 21 20 20 20 20 19 19 14 12 8 9 14 13 7 15 19 17 19 18 20 20 17 17 15 22 14 15 10 5 9 4 10 13 11 10 1 6 18 20 19
24 23 22 23 23 24 24 23 21 19 20 19 18 14 13 19 8 7 5 17 21 20 20 20 15 20 13 18 20 9 18 12 11 17 8 10 13 5 12 10 8 12 17 19 20
25 25 24 23 24 24 25 24 24 22 20 20 18 18 15 19 7 4 7 16 20 22 17 20 18 12 9 15 15 17 11 17 20 12 11 12 17 15 15 9 13 15 16 17 19
24 24 25 25 25 25 25 24 24 23 22 21 20 19 14 15 22 26 10 12 15 16 14 12 16 15 14 4 7 16 19 16 13 18 12 11 15 21 19 14 16 16 16 17 19
24 23 24 26 25 25 24 23 25 24 23 21 19 16 18 10 25 24 26 20 15 13 11 7 12 15 11 11 13 14 14 21 17 16 13 18 11 19 7 20 18 16 17 17 18
25 24 24 25 26 26 25 25 25 25 20 20 21 12 18 13 15 23 22 24 18 13 10 11 7 10 14 15 17 16 19 16 20 14 19 17 20 7 5 12 17 18 18 18 19
26 28 25 26 26 25 24 24 10 8 19 18 10 19 3 23 8 14 27 23 17 17 14 18 10 15 21 21 20 5 16 19 10 7 11 20 19 20 15 12 15 18 21 19 19
27 27 26 25 26 23 20 10 14 10 11 15 20 25 30 10 11 13 25 18 19 20 21 13 21 20 19 19 20 19 12 13 7 6 8 13 19 19 20 21 18 17 18 20 19
27 27 27 25 24 22 19 20 18 17 7 11 20 21 25 20 14 17 23 24 21 22 22 20 8 21 22 21 22 20 17 14 6 7 12 11 17 22 23 23 20 20 18 19 21
27 27 27 23 15 8 9 4 5 6 5 9 10 16 22 22 20 24 21 22 11 24 21 19 19 14 20 19 21 20 17 15 11 5 6 7 6 8 20 23 21 22 22 19 21
26 25 24 15 14 13 14 13 3 3 6 16 12 2 19 30 21 21 22 16 18 15 15 12 20 16 18 19 17 15 14 17 14 13 15 14 6 9 9 15 19 23 22 22 21
26 24 20 14 10 12 9 4 2 4 7 4 3 6 14 24 26 17 25 17 9 14 19 10 3 15 15 11 16 7 7 9 9 11 11 19 15 9 10 15 15 18 22 22 22
24 23 19 14 10 5 3 1 4 5 1 3 6 8 17 18 24 22 27 24 10 8 12 16 11 6 10 11 12 14 15 6 6 7 9 2 15 13 4 4 2 8 20 21 22
24 23 14 12 10 4 1 1 7 4 8 4 9 7 13 14 20 26 19 20 22 16 13 11 10 13 12 12 8 20 18 5 7 6 10 4 9 8 16 15 5 8 6 17 21
22 12 10 5 5 5 2 4 5 5 7 8 11 9 6 9 6 19 23 22 20 23 14 13 15 19 17 14 13 17 17 3 6 2 5 8 10 11 10 7 5 11 9 15 18
12 11 3 8 4 5 2 6 5 6 1 8 6 4 7 10 7 14 17 19 22 24 21 9 8 13 6 4 13 10 15 12 4 5 6 8 10 7 7 14 11 11 11 14 17
7 4 5 7 2 2 4 4 7 9 7 4 5 4 8 2 8 9 5 6 24 22 21 11 7 7 9 12 16 7 10 11 6 8 7 10 5 5 6 3 12 11 12 13 18
4 3 7 5 3 2 5 4 5 10 10 7 5 9 13 1 4 10 7 4 8 22 25 17 3 9 14 6 6 18 15 17 7 7 4 3 1 3 4 3 3 11 11 13 15
3 3 3 3 3 3 9 11 9 11 10 3 4 5 8 5 3 7 4 4 10 8 17 12 4 8 8 3 5 6 17 7 11 6 14 9 4 3 5 6 5 11 11 12 15
1 2 1 1 1 5 9 8 5 7 10 9 8 6 4 8 10 3 7 0 5 7 10 16 5 8 13 5 7 7 11 16 15 12 13 14 18 7 5 7 8 11 12 13 15
3 2 3 3 3 8 9 7 12 7 5 4 4 10 5 2 2 4 5 5 6 6 8 7 6 13 15 13 7 10 15 14 14 19 17 17 14 15 6 5 8 10 13 14 15
2 3 2 6 8 8 9 2 9 12 4 6 5 10 6 4 4 3 5 3 3 4 4 1 3 8 13 13 14 13 17 19 20 21 23 20 22 13 5 6 9 11 13 14 16
3 3 2 5 4 6 4 7 8 12 7 12 10 2 5 6 7 4 5 4 3 8 8 5 4 4 10 12 12 12 23 21 20 22 21 21 20 14 5 7 10 13 14 15 16
Wind_Direction
327 328 319 320 324 330 330 328 308 307 308 316 318 318 312 304 297 272 247 236 228 227 194 188 188 193 195 199 215 231 230 235 229 225 236 139 198 228 72 134 187 169 27 130 148
330 332 331 318 314 314 319 322 327 306 302 310 312 312 313 309 297 278 256 234 225 204 199 190 187 182 191 203 198 209 223 234 256 253 256 171 214 182 187 178 177 162 113 137 152
319 320 318 321 325 321 310 314 316 319 301 299 304 306 313 312 294 266 321 212 201 199 200 198 193 188 205 202 207 215 237 230 253 256 278 226 219 169 217 200 206 186 158 154 164
329 333 328 317 311 313 318 308 305 311 315 293 292 304 311 296 272 27 329 199 193 198 212 206 202 201 211 204 211 245 225 250 288 201 233 227 226 211 227 191 291 177 165 165 174
324 318 318 317 323 320 310 307 305 300 304 309 280 289 301 244 248 291 308 178 187 191 209 203 205 201 211 214 220 218 246 229 209 228 239 256 229 227 218 228 22 166 164 177 179
325 324 320 317 316 311 309 308 298 303 294 298 296 272 251 257 276 266 237 187 193 197 213 209 215 215 236 232 214 219 230 224 235 230 221 235 236 192 224 211 184 171 180 182 184
317 318 318 317 314 309 308 300 302 296 299 294 291 272 257 244 264 250 217 193 199 205 213 216 222 249 219 238 231 223 227 235 234 217 223 226 247 214 238 176 192 184 185 187 188
322 321 319 318 315 313 309 303 298 291 288 287 286 278 258 253 243 240 239 223 224 222 234 235 237 252 239 239 215 218 224 231 211 213 215 193 250 224 222 193 206 197 187 189 190
322 322 320 318 319 317 317 310 298 284 275 276 277 250 264 223 220 227 219 211 202 213 206 223 218 229 221 221 214 206 221 224 224 193 201 207 244 237 204 203 218 203 200 189 189
318 318 317 316 315 314 315 307 297 276 261 253 247 256 257 227 224 220 208 204 187 181 186 203 189 213 214 207 214 213 221 234 217 184 213 212 236 219 197 232 214 222 206 191 193
316 315 314 313 312 311 315 316 290 257 234 223 213 216 331 218 167 211 193 192 185 187 187 192 198 204 202 218 228 292 231 232 221 149 208 229 239 235 220 210 225 224 213 199 196
316 311 311 308 308 307 302 273 281 292 286 275 268 263 246 217 205 205 180 184 191 197 198 186 221 213 215 218 230 246 257 223 216 166 225 243 245 243 235 225 214 217 219 205 194
319 313 309 308 305 299 276 279 294 315 260 264 245 245 241 225 231 182 186 196 193 202 201 204 216 222 210 215 221 224 222 236 251 184 228 273 265 246 233 232 224 211 214 209 202
322 319 317 314 299 310 292 338 322 20 277 246 210 238 223 236 239 236 201 194 202 207 204 225 215 206 222 225 216 222 221 234 186 248 239 197 285 230 209 216 215 214 212 202 201
325 324 321 313 286 285 286 303 344 100 285 342 203 30 203 207 210 222 194 218 211 198 201 200 210 205 213 214 217 230 219 221 244 256 266 239 260 251 182 200 207 211 209 206 196
326 324 321 316 281 275 303 305 236 235 249 325 279 217 198 201 212 213 185 182 233 212 201 208 195 211 215 210 221 222 198 206 229 246 250 238 217 244 191 218 212 209 206 201 194
326 321 311 296 281 340 306 287 245 238 23 311 261 238 211 207 210 219 191 190 172 171 181 193 192 159 198 172 201 187 172 166 201 207 235 342 221 251 215 85 222 191 195 195 191
322 321 313 293 280 280 76 226 251 265 259 246 286 280 238 215 213 215 199 201 208 212 169 178 193 174 185 189 187 194 188 182 203 208 215 163 233 239 244 251 199 172 185 191 187
326 321 307 312 306 190 184 239 273 323 355 330 301 259 258 206 234 203 212 213 207 216 218 197 222 172 181 193 177 199 217 257 314 244 250 189 237 291 205 181 171 180 186 194 186
317 315 298 323 270 167 223 267 285 312 213 287 296 327 265 209 200 193 204 219 216 215 222 235 203 172 156 184 216 220 201 212 225 226 227 196 228 258 185 211 182 188 192 188 177
301 319 24 338 227 201 255 276 300 300 284 263 309 308 288 4 197 211 234 211 203 197 215 206 236 162 148 208 190 181 214 211 235 247 259 238 205 32 79 106 180 183 182 178 174
311 298 3 337 287 244 262 277 320 297 278 259 274 269 264 214 301 196 245 242 261 184 192 199 227 171 205 168 287 219 216 205 209 202 231 299 73 32 56 92 198 162 152 162 170
317 295 344 335 291 301 311 300 290 287 283 275 273 247 304 275 217 231 165 262 295 197 193 155 201 201 193 218 197 220 222 216 232 287 222 215 149 94 88 102 150 137 144 150 162
317 326 305 359 184 290 323 307 315 292 279 269 280 271 298 277 229 239 161 99 286 217 136 166 159 222 213 207 146 200 216 220 219 228 231 226 249 180 107 125 148 151 149 149 159
339 14 343 305 318 312 298 286 295 294 255 267 281 256 267 306 262 206 140 132 187 142 163 149 188 201 231 244 252 218 208 219 208 218 224 238 224 255 77 147 163 156 152 152 156
350 320 321 294 307 306 291 327 307 306 260 284 235 293 319 213 240 219 133 145 178 162 151 149 217 231 235 243 237 250 219 209 218 224 226 229 242 236 89 125 157 165 163 165 164
21 283 275 281 303 300 5 333 317 322 277 264 288 292 296 280 288 339 298 203 169 178 189 162 206 221 257 227 220 250 231 224 222 222 225 230 235 243 195 180 195 178 177 173 168